User: anonymous   Login
Location: Young's Pond
(41.2695°N, 72.7766°W)
Time: 10:07:07
(UTC-05:00)
Language:

CZ-4B R/B - Orbit

View from above orbital plane
View from above orbital plane
View from above satellite
View from above satellite

Ground track
Ground track

The orbit data is extracted from the following two-line orbital elements,

1 29093U 06015B   16037.70085582  .00006780  00000-0  18603-3 0  9999
2 29093  97.4853 132.8737 0070781 298.3055  61.1059 15.35069148541236
Epoch (UTC): 06 February 2016 16:49:13
Eccentricity: 0.0070781
inclination: 97.4853°
perigee height: 412 km
apogee height: 509 km
right ascension of ascending node: 132.8737°
argument of perigee: 298.3055°
revolutions per day: 15.35069148
mean anomaly at epoch: 61.1059°
orbit number at epoch: 54123

The dashed part of the orbit path shows where the satellite is in the earth's shadow,  

DLR